RH
55 55 55 57 68 68 63 72 76 84 83 86 90 98 84 85 86 86 81 84 95 93 81 88 88 85 90 100 99 98 96 100 94 90 98 90 93 100 98 96 92 86 77
53 50 50 43 51 59 69 80 84 81 85 92 90 82 85 87 82 81 81 82 84 83 88 88 84 73 78 88 94 98 100 98 99 95 100 100 96 88 91 94 92 90 80
50 46 45 41 36 44 50 74 85 85 86 87 88 98 100 98 99 99 95 84 86 82 87 99 99 98 90 95 97 89 99 100 98 100 94 98 93 94 88 93 95 93 88
43 43 41 40 33 35 49 62 76 84 79 89 89 89 89 93 99 98 98 98 98 100 99 99 98 99 95 95 97 99 98 100 100 97 99 95 98 100 99 100 96 95 93
42 43 39 36 32 30 40 42 53 79 77 79 84 94 96 94 98 97 96 94 93 95 98 99 100 100 100 99 100 98 97 100 100 100 98 98 100 96 98 100 100 100 100
40 41 38 34 32 30 30 33 34 38 46 53 45 48 64 74 70 72 77 79 78 75 72 66 80 96 97 98 99 100 100 100 100 100 100 98 100 99 99 98 90 100 100
39 36 36 35 34 31 30 28 27 26 23 24 24 20 18 18 17 16 16 18 21 21 20 21 21 40 74 94 98 97 98 99 100 100 100 100 100 99 100 100 93 100 100
37 36 36 36 36 34 32 30 26 23 21 20 21 21 21 20 20 19 19 18 18 17 17 17 17 17 16 18 46 82 80 76 95 99 99 100 100 100 100 100 97 92 99
34 34 36 37 38 36 34 32 29 26 23 23 23 24 24 24 23 22 21 20 20 19 19 18 17 16 16 16 17 17 29 47 47 61 94 99 99 98 100 100 100 100 100
33 33 35 38 39 39 36 34 32 29 27 26 27 28 28 26 25 24 24 24 23 22 20 19 18 17 16 16 16 16 18 18 18 20 22 28 57 92 100 98 100 100 100
40 37 37 38 41 42 41 37 34 32 30 30 31 31 32 49 39 60 65 50 46 45 28 21 20 19 18 18 17 17 17 17 17 17 18 21 18 19 27 54 92 99 99
46 44 42 41 42 44 44 40 36 34 32 33 34 43 90 67 96 97 97 97 96 79 47 24 23 21 20 20 20 19 19 19 18 19 18 17 18 19 20 20 20 25 44
57 52 46 44 43 45 44 42 39 36 35 34 38 90 97 96 96 96 96 94 65 36 30 27 25 24 23 22 22 21 20 19 20 22 23 21 19 20 21 20 22 22 29
56 52 48 46 45 46 45 44 42 40 39 41 81 96 97 95 96 89 60 94 93 71 43 30 29 28 28 28 28 25 22 20 20 20 21 25 29 33 44 61 49 39 37
58 52 50 48 47 46 45 45 45 44 42 59 89 95 96 96 95 93 95 95 94 68 35 33 32 30 30 31 53 52 29 26 22 20 21 25 35 51 58 55 50 59 70
61 59 52 48 46 46 46 46 47 47 90 97 97 96 96 97 96 96 95 95 81 44 37 36 34 32 32 32 37 89 49 34 30 25 25 28 38 55 53 49 58 92 90
66 67 55 49 48 47 48 49 52 85 97 96 96 96 96 96 96 95 95 94 55 41 40 39 37 34 33 33 48 98 66 49 40 39 36 38 56 57 58 63 82 90 95
77 65 57 54 51 50 54 59 81 96 96 96 96 96 96 96 96 94 89 59 42 39 38 38 38 39 40 41 64 100 75 67 64 60 58 54 67 73 95 92 95 94 92
85 75 69 65 65 70 88 96 96 96 96 96 96 96 95 95 94 73 49 45 40 38 38 40 40 38 36 37 74 99 90 92 81 71 77 84 81 76 96 95 92 87 78
94 98 97 97 97 97 96 96 96 95 95 95 96 95 95 93 61 49 46 43 42 42 41 38 37 36 36 38 50 100 98 87 82 86 91 93 100 97 97 97 94 82 87
93 94 94 95 96 96 96 96 96 95 95 95 95 93 77 52 50 48 47 44 44 43 44 44 44 44 44 44 45 84 97 85 91 95 86 80 77 96 96 97 97 93 98
93 92 94 96 96 96 96 96 96 96 95 91 63 53 49 48 46 46 52 51 52 52 51 53 59 64 64 61 57 100 100 98 94 86 77 72 88 96 95 96 100 96 97
93 95 95 95 95 95 96 96 95 90 61 53 50 47 45 48 53 56 54 58 58 57 63 78 77 74 75 72 73 77 86 100 98 86 86 94 94 95 96 84 98 98 78
95 96 95 95 94 95 92 71 57 53 51 47 46 47 50 56 57 58 62 62 61 62 81 88 89 91 88 84 84 87 93 93 93 85 87 96 100 90 85 82 82 74 77
96 97 96 97 92 70 60 56 52 47 47 48 50 53 55 55 58 60 60 60 66 84 100 97 98 96 96 95 100 98 96 97 96 96 97 97 98 93 79 67 63 76 94
97 96 94 68 57 54 51 49 49 50 54 55 55 56 58 61 62 61 60 75 74 90 100 100 100 97 100 100 100 99 96 96 99 97 96 86 81 74 70 74 84 91 94
Wind_Speed
6 6 8 8 10 13 17 20 21 19 12 6 3 2 2 4 7 8 12 16 17 18 20 21 21 19 19 21 18 22 24 24 35 42 37 40 41 44 39 42 42 38 36
8 7 7 8 10 14 15 15 19 21 19 13 8 6 7 8 9 11 12 14 15 16 20 26 24 21 19 19 21 23 22 25 23 32 34 24 38 45 45 46 45 43 41
10 9 8 8 9 10 12 13 15 16 16 15 14 8 5 5 6 8 8 10 11 12 16 16 17 15 15 16 17 20 21 22 26 20 26 15 26 32 47 50 49 48 46
11 10 9 8 7 7 8 10 10 10 12 12 10 10 11 11 13 11 11 10 9 8 6 8 8 9 11 14 14 15 15 19 22 22 26 26 31 11 16 40 54 51 49
10 11 11 9 7 6 5 6 7 7 8 9 10 9 7 7 7 8 8 7 7 9 10 11 11 10 8 6 6 9 14 14 16 14 22 26 26 26 28 15 28 52 53
11 11 11 10 9 7 6 5 6 5 6 6 5 5 6 6 5 5 5 6 5 6 7 9 10 10 10 12 10 9 7 7 3 8 6 8 12 14 17 28 33 41 48
13 11 12 11 10 9 7 6 5 5 4 4 3 4 5 6 6 7 8 8 8 8 9 9 8 7 8 9 9 11 10 10 9 8 8 5 4 5 6 9 12 12 24
15 14 12 12 12 12 10 9 8 6 5 4 3 2 3 4 5 6 7 8 9 10 11 11 10 10 10 8 7 9 11 14 11 11 9 7 8 8 10 6 16 21 10
16 15 14 14 14 14 13 12 10 9 8 6 5 3 2 3 4 5 6 6 8 10 11 11 10 10 10 10 10 8 7 7 10 13 13 13 10 8 8 7 7 2 3
16 18 18 17 16 15 15 15 13 11 10 8 6 4 1 2 3 4 5 7 8 9 10 11 11 11 11 11 11 10 10 8 7 6 9 12 13 13 11 9 6 8 5
13 17 21 20 19 17 15 15 14 12 10 8 6 4 1 8 3 5 6 6 6 8 11 11 11 11 11 11 11 11 10 10 10 9 8 8 7 9 9 11 15 11 10
10 15 22 23 22 18 15 14 14 13 12 10 8 6 10 10 11 12 8 6 6 8 9 9 9 9 10 10 10 10 11 11 11 11 10 8 8 9 8 7 7 7 9
12 14 17 22 24 19 15 14 14 15 15 13 12 14 15 14 12 10 6 5 7 8 9 9 9 9 9 9 9 9 10 10 10 11 11 11 10 9 9 10 9 9 9
16 15 12 19 22 18 15 14 15 15 15 14 14 17 15 13 9 5 5 6 7 9 9 9 9 9 9 9 11 10 10 10 10 10 10 10 10 10 9 9 10 10 12
16 17 16 17 19 17 16 15 14 13 13 16 21 19 13 9 9 8 7 6 7 10 11 11 10 9 9 9 10 13 13 12 12 11 11 11 9 7 8 11 11 11 12
16 15 13 14 19 19 19 15 12 11 18 20 15 12 11 10 9 8 5 5 9 11 11 11 11 11 10 10 11 12 15 13 14 13 12 12 11 10 12 10 10 10 12
16 17 12 11 17 18 15 12 11 16 15 12 10 9 9 7 6 5 6 8 12 12 12 12 12 12 12 12 11 10 16 16 13 13 13 12 11 13 13 12 11 11 12
16 10 6 7 12 14 12 11 15 15 11 9 8 8 7 6 5 7 10 12 13 13 14 14 15 15 14 14 12 10 13 14 14 13 12 11 12 14 12 13 16 15 15
8 6 4 5 7 9 12 14 12 8 7 8 7 7 7 7 8 11 12 13 14 15 15 16 16 17 17 15 12 12 12 14 14 11 10 10 11 13 12 15 17 20 20
8 7 6 8 9 10 9 7 7 6 6 8 8 8 8 10 12 13 13 15 16 16 16 16 15 14 14 13 11 10 12 14 15 14 14 11 12 14 14 15 16 20 19
8 7 7 5 5 5 5 6 8 7 8 8 9 10 11 13 14 14 15 15 14 14 13 13 12 11 12 12 11 12 13 14 16 19 21 20 18 15 15 16 21 18 19
5 4 4 5 5 6 6 7 8 7 9 10 12 13 13 13 14 13 12 12 12 11 11 10 10 10 11 11 12 12 11 11 14 17 19 18 18 19 19 19 19 19 21
6 5 6 6 6 7 7 8 9 10 12 13 14 14 13 12 11 11 11 9 10 11 8 10 13 13 13 13 11 9 11 13 14 16 17 18 19 19 19 22 21 20 25
7 7 7 8 9 9 10 11 12 13 14 14 13 12 11 10 11 10 11 11 11 9 9 13 16 18 18 16 14 18 19 19 21 21 19 20 19 23 23 22 22 27 25
8 8 9 9 10 12 13 14 14 14 13 13 12 10 11 11 10 10 10 10 8 10 14 16 17 19 20 18 18 18 20 21 22 22 24 21 14 20 28 30 29 24 22
10 10 10 12 13 14 15 14 14 14 14 12 11 11 11 11 10 10 7 7 11 11 11 12 14 16 17 17 18 20 19 19 19 21 21 26 28 29 28 26 23 22 24
Wind_Direction
285 319 333 346 358 2 9 17 25 32 35 26 349 30 1 321 324 312 288 286 292 290 283 279 273 272 271 266 262 262 266 260 235 247 245 250 247 238 236 239 237 236 235
275 301 318 335 344 359 13 21 24 28 32 28 25 358 340 328 320 307 297 287 297 300 300 292 289 281 273 270 266 265 266 254 263 242 246 256 251 244 240 235 236 234 237
266 283 297 318 337 347 359 12 19 26 31 26 22 17 12 355 325 310 301 304 300 297 301 311 313 302 299 294 288 274 270 269 255 259 256 254 254 239 239 235 234 233 234
256 266 276 292 313 331 346 354 8 21 23 24 20 31 38 43 50 46 46 38 26 16 0 352 350 344 326 305 296 290 279 278 276 273 266 255 271 244 230 228 233 230 231
247 256 264 276 289 305 324 340 354 357 7 17 26 29 27 36 40 48 52 52 50 43 44 49 33 22 10 354 323 298 288 278 274 286 266 258 259 267 272 299 221 230 229
242 251 259 265 270 279 287 300 319 332 344 355 4 19 40 50 39 33 21 32 34 38 31 35 30 13 6 15 25 25 27 35 357 267 280 282 261 267 264 259 261 235 228
238 253 259 265 269 273 277 284 295 306 322 334 338 2 24 26 25 34 33 26 27 32 33 27 24 15 9 357 356 3 11 21 23 39 52 44 317 271 241 249 268 306 208
245 254 261 265 269 269 268 269 272 279 286 295 308 345 22 31 31 29 27 25 21 26 27 20 18 19 20 21 1 348 352 354 345 360 24 28 29 14 23 303 253 263 299
249 259 261 265 267 270 269 266 264 263 264 266 271 288 326 14 21 30 25 25 22 20 18 17 15 12 11 10 9 10 7 358 346 340 329 325 335 0 8 11 35 88 153
264 263 264 262 263 264 266 263 259 255 256 256 255 259 290 323 11 14 13 15 17 15 5 5 8 8 8 8 8 9 6 7 5 1 348 341 331 324 314 295 317 335 344
285 279 271 261 258 256 259 258 254 254 251 245 244 241 315 280 297 311 317 328 345 2 355 355 358 360 5 8 7 7 8 7 6 2 0 358 353 340 339 321 313 311 301
319 293 276 256 250 251 253 253 249 247 243 235 228 229 262 261 283 282 293 320 350 352 340 343 346 351 354 0 3 6 4 1 4 4 360 356 355 348 341 332 331 324 304
327 312 282 253 243 241 245 247 246 243 242 242 246 273 280 269 277 290 314 352 335 342 340 338 339 344 345 346 351 354 354 353 352 352 351 349 346 343 345 337 331 320 311
337 332 297 250 236 236 242 243 249 252 253 254 262 276 270 261 278 323 332 307 327 323 321 325 330 334 337 338 340 340 340 338 336 334 332 335 335 338 338 331 333 327 322
339 341 320 257 233 230 234 243 251 256 263 269 280 275 279 262 250 249 273 311 325 317 315 318 320 324 327 331 342 330 329 330 328 325 320 318 323 323 321 321 322 318 318
333 330 313 261 233 234 235 239 246 255 285 285 274 270 272 275 272 272 285 313 315 310 309 311 315 319 322 318 322 330 317 322 321 318 312 307 306 308 319 323 318 322 318
339 337 320 256 226 222 229 236 253 286 294 279 273 275 275 275 275 289 320 322 307 309 311 313 314 316 319 318 319 327 310 317 321 320 312 305 301 298 308 314 323 313 310
335 328 304 239 216 219 228 248 271 291 287 280 281 283 282 287 310 328 320 302 301 307 311 314 317 320 322 321 324 334 314 320 328 333 327 309 294 295 317 323 309 308 303
331 315 288 238 227 238 258 272 279 276 277 282 289 285 290 309 324 310 304 307 308 309 310 313 315 318 319 322 331 331 329 325 329 333 330 324 320 325 321 305 301 301 296
304 293 279 269 268 271 274 269 268 274 276 276 284 293 313 322 306 302 305 307 308 309 309 311 314 315 315 318 324 334 315 318 328 329 328 325 321 321 317 308 306 300 302
306 306 299 283 268 268 273 270 273 277 278 286 299 315 308 297 298 301 304 306 308 309 312 318 323 325 325 325 320 326 328 323 323 316 317 319 321 318 314 309 304 307 316
292 298 293 290 290 292 286 281 283 289 295 307 305 299 298 298 298 300 303 305 306 310 318 322 327 332 334 336 336 329 322 319 307 308 310 314 323 311 305 300 298 302 302
301 297 290 287 290 294 287 287 294 305 303 300 300 299 301 299 299 301 303 302 304 311 323 330 331 334 336 342 344 356 346 322 307 309 312 308 303 303 303 303 303 300 301
281 281 282 285 288 288 291 299 296 297 298 299 300 300 298 293 300 299 299 300 305 314 327 330 329 330 331 337 346 342 334 325 322 319 315 311 303 298 298 300 298 304 306
279 282 282 283 290 293 293 295 295 296 296 298 298 298 298 298 299 300 299 299 307 319 325 318 319 318 322 329 325 316 314 314 313 308 303 303 298 302 305 305 306 309 300
276 282 287 289 289 289 292 293 294 295 296 296 296 297 298 298 297 298 288 292 306 311 308 307 307 309 306 313 314 312 310 309 308 299 300 303 305 306 306 306 306 298 295